WJA108 CYVR-CYYC

Flight info

Callsign WJA108
Flight time N/A
Altitude 37000
Route DAPED DCT PETLI DCT MENBO Q983 NORET IGVEP7
Aircraft B737/M-SDE2E3FGHIRWXY/LB1

Departure

Time N/A
Airport Vancouver International Airport (CYVR)

Arrival

Time 2026-05-07 20:00
Airport Calgary International Airport (CYYC)
Time Latitude Longitude Altitude Speed Heading
2026-05-07 19:23 49.23178 -122.57113 19899 ft 408 kts 96°
2026-05-07 19:23 49.22396 -122.48430 21091 ft 416 kts 96°
2026-05-07 19:24 49.19757 -122.19673 24477 ft 446 kts 96°
2026-05-07 19:24 49.18873 -122.10218 25404 ft 453 kts 96°
2026-05-07 19:24 49.18275 -122.03869 25992 ft 457 kts 96°
2026-05-07 19:24 49.17356 -121.94187 26882 ft 464 kts 96°
2026-05-07 19:25 49.16415 -121.84360 27744 ft 470 kts 96°
2026-05-07 19:25 49.15454 -121.74404 28568 ft 477 kts 97°
2026-05-07 19:25 49.14998 -121.64260 29322 ft 480 kts 82°
2026-05-07 19:25 49.15912 -121.54114 29987 ft 486 kts 78°
2026-05-07 19:26 49.17230 -121.40492 30895 ft 492 kts 78°
2026-05-07 19:26 49.17873 -121.33467 31242 ft 497 kts 78°
2026-05-07 19:26 49.18800 -121.22948 31889 ft 500 kts 79°
2026-05-07 19:26 49.19690 -121.12604 32768 ft 497 kts 78°
2026-05-07 19:27 49.20590 -121.02082 33430 ft 499 kts 78°
2026-05-07 19:27 49.21485 -120.91545 34129 ft 499 kts 78°
2026-05-07 19:27 49.22367 -120.81042 34718 ft 498 kts 78°
2026-05-07 19:27 49.23240 -120.70533 35210 ft 499 kts 78°
2026-05-07 19:28 49.24103 -120.60011 35725 ft 498 kts 77°
2026-05-07 19:28 49.24959 -120.49480 36171 ft 499 kts 77°
2026-05-07 19:28 49.25800 -120.38980 36740 ft 496 kts 77°
2026-05-07 19:28 49.26632 -120.28490 37107 ft 498 kts 77°
2026-05-07 19:29 49.28192 -120.08532 37057 ft 506 kts 77°
2026-05-07 19:29 49.29307 -119.93838 37019 ft 493 kts 77°
2026-05-07 19:30 49.30056 -119.83511 36942 ft 482 kts 76°
2026-05-07 19:30 49.30840 -119.73380 37073 ft 479 kts 76°
2026-05-07 19:30 49.34142 -119.53777 37052 ft 473 kts 54°
2026-05-07 19:31 49.40220 -119.35724 37024 ft 481 kts 54°
2026-05-07 19:31 49.46174 -119.17496 36997 ft 470 kts 54°
2026-05-07 19:32 49.51907 -118.99757 37020 ft 461 kts 54°
2026-05-07 19:32 49.61558 -118.69715 37032 ft 471 kts 54°
2026-05-07 19:33 49.67347 -118.51433 37157 ft 478 kts 54°
2026-05-07 19:33 49.69444 -118.44786 37046 ft 471 kts 54°
2026-05-07 19:33 49.75079 -118.26822 36990 ft 465 kts 54°
2026-05-07 19:34 49.80676 -118.08901 36997 ft 461 kts 54°
2026-05-07 19:34 49.86922 -117.88731 36984 ft 462 kts 54°
2026-05-07 19:35 49.94177 -117.65170 37033 ft 474 kts 55°
2026-05-07 19:35 49.97825 -117.53136 36990 ft 475 kts 55°
2026-05-07 19:36 50.03386 -117.34711 37007 ft 466 kts 55°
2026-05-07 19:36 50.07544 -117.20802 37004 ft 460 kts 55°
2026-05-07 19:37 50.12086 -117.05731 37010 ft 474 kts 55°
2026-05-07 19:37 50.13992 -116.99313 36572 ft 469 kts 55°
2026-05-07 19:37 50.15343 -116.94740 36353 ft 461 kts 55°
2026-05-07 19:38 50.17660 -116.86920 35986 ft 462 kts 55°
2026-05-07 19:38 50.20355 -116.77809 35184 ft 459 kts 54°
2026-05-07 19:38 50.22931 -116.69006 34290 ft 445 kts 54°
2026-05-07 19:38 50.25468 -116.60324 33435 ft 434 kts 53°
2026-05-07 19:39 50.27947 -116.51840 32479 ft 425 kts 53°
2026-05-07 19:39 50.30387 -116.43476 31671 ft 421 kts 53°
2026-05-07 19:39 50.32785 -116.35192 30811 ft 412 kts 53°
2026-05-07 19:39 50.35100 -116.27168 29980 ft 398 kts 53°
2026-05-07 19:40 50.37171 -116.19218 29067 ft 390 kts 58°
2026-05-07 19:40 50.38932 -116.11339 28197 ft 377 kts 60°
2026-05-07 19:40 50.40606 -116.03816 27447 ft 365 kts 60°
2026-05-07 19:40 50.42299 -115.96359 26723 ft 365 kts 60°
2026-05-07 19:41 50.44036 -115.88783 25986 ft 374 kts 61°
2026-05-07 19:41 50.45819 -115.80973 25200 ft 385 kts 63°
2026-05-07 19:41 50.47625 -115.72992 24328 ft 390 kts 64°
2026-05-07 19:41 50.49418 -115.65013 23489 ft 380 kts 65°
2026-05-07 19:42 50.51102 -115.57475 22965 ft 355 kts 65°
2026-05-07 19:42 50.52737 -115.50195 22088 ft 350 kts 65°
2026-05-07 19:42 50.54341 -115.43027 21266 ft 345 kts 65°
2026-05-07 19:42 50.55929 -115.35922 20501 ft 347 kts 66°
2026-05-07 19:43 50.57521 -115.28753 19732 ft 356 kts 67°
2026-05-07 19:43 50.59123 -115.21378 18819 ft 353 kts 67°
2026-05-07 19:43 50.60645 -115.14161 17890 ft 342 kts 68°
2026-05-07 19:43 50.62685 -115.04483 16638 ft 324 kts 68°
2026-05-07 19:44 50.64307 -114.96827 15790 ft 308 kts 69°
2026-05-07 19:44 50.64976 -114.93648 15444 ft 303 kts 68°
2026-05-07 19:44 50.65637 -114.90525 15061 ft 297 kts 68°
2026-05-07 19:44 50.66280 -114.87474 14698 ft 290 kts 69°
2026-05-07 19:45 50.66911 -114.84469 14374 ft 288 kts 69°
2026-05-07 19:45 50.67524 -114.81529 14134 ft 282 kts 69°
2026-05-07 19:45 50.68126 -114.78628 13827 ft 276 kts 70°
2026-05-07 19:45 50.68782 -114.75476 13282 ft 277 kts 70°
2026-05-07 19:46 50.69989 -114.69654 12185 ft 280 kts 69°
2026-05-07 19:46 50.71028 -114.65363 11388 ft 280 kts 56°
2026-05-07 19:46 50.72255 -114.63021 10965 ft 273 kts 41°
2026-05-07 19:46 50.73582 -114.61014 10886 ft 257 kts 41°
2026-05-07 19:47 50.74816 -114.59097 10787 ft 239 kts 43°
2026-05-07 19:47 50.75957 -114.57285 10521 ft 228 kts 40°
2026-05-07 19:47 50.77041 -114.55555 10183 ft 222 kts 41°
2026-05-07 19:47 50.78113 -114.53822 9747 ft 221 kts 42°
2026-05-07 19:48 50.79860 -114.50978 9044 ft 218 kts 42°
2026-05-07 19:48 50.80879 -114.49317 8995 ft 203 kts 39°
2026-05-07 19:48 50.81875 -114.47790 9011 ft 201 kts 39°
2026-05-07 19:48 50.82984 -114.46129 9061 ft 239 kts 39°
2026-05-07 19:49 50.84217 -114.44270 9055 ft 245 kts 40°
2026-05-07 19:49 50.85413 -114.42447 8995 ft 231 kts 39°
2026-05-07 19:49 50.86538 -114.40727 8993 ft 220 kts 39°
2026-05-07 19:49 50.87615 -114.39094 9017 ft 216 kts 39°
2026-05-07 19:50 50.88695 -114.37444 9013 ft 217 kts 40°
2026-05-07 19:50 50.89787 -114.35780 9031 ft 216 kts 39°
2026-05-07 19:50 50.90850 -114.34158 8990 ft 207 kts 40°
2026-05-07 19:50 50.91611 -114.32280 8925 ft 208 kts 77°
2026-05-07 19:51 50.91688 -114.30016 8996 ft 207 kts 89°
2026-05-07 19:51 50.91624 -114.27725 8996 ft 208 kts 90°
2026-05-07 19:51 50.91493 -114.25435 8997 ft 210 kts 101°
2026-05-07 19:51 50.91125 -114.23208 8989 ft 208 kts 103°
2026-05-07 19:52 50.90743 -114.21023 9024 ft 209 kts 103°
2026-05-07 19:52 50.90338 -114.18814 9046 ft 208 kts 103°
2026-05-07 19:52 50.89919 -114.16592 8903 ft 214 kts 103°
2026-05-07 19:52 50.89490 -114.14331 8626 ft 213 kts 102°
2026-05-07 19:53 50.89098 -114.12103 8371 ft 207 kts 102°
2026-05-07 19:53 50.88729 -114.09929 8094 ft 202 kts 101°
2026-05-07 19:53 50.88401 -114.07797 7815 ft 196 kts 89°
2026-05-07 19:53 50.88709 -114.05832 7522 ft 178 kts 46°
2026-05-07 19:54 50.89631 -114.04675 7356 ft 169 kts 26°
2026-05-07 19:54 50.90679 -114.03771 7102 ft 172 kts 24°
2026-05-07 19:54 50.91743 -114.02905 6858 ft 171 kts 22°
2026-05-07 19:54 50.92788 -114.02064 6620 ft 166 kts 24°
2026-05-07 19:55 50.93790 -114.01255 6584 ft 158 kts 24°
2026-05-07 19:55 50.94800 -114.00507 6547 ft 159 kts 18°
2026-05-07 19:55 50.95815 -113.99836 6502 ft 156 kts 22°
2026-05-07 19:55 50.96803 -113.99169 6373 ft 156 kts
2026-05-07 19:56 50.97862 -113.99099 6173 ft 152 kts 360°
2026-05-07 19:56 50.98916 -113.99052 5975 ft 153 kts 359°
2026-05-07 19:56 50.99967 -113.99035 5779 ft 149 kts 357°
2026-05-07 19:56 51.00992 -113.99028 5564 ft 146 kts 358°
2026-05-07 19:57 51.02005 -113.99028 5359 ft 144 kts 358°
2026-05-07 19:57 51.02991 -113.99028 5191 ft 142 kts 356°
2026-05-07 19:57 51.03990 -113.99032 5025 ft 148 kts 358°
2026-05-07 19:57 51.05023 -113.99030 4830 ft 147 kts 357°
2026-05-07 19:58 51.06042 -113.99027 4617 ft 143 kts 355°
2026-05-07 19:58 51.07029 -113.99028 4407 ft 141 kts 358°
2026-05-07 19:58 51.08016 -113.99029 4246 ft 143 kts 358°
2026-05-07 19:58 51.08987 -113.99038 4054 ft 136 kts 358°
2026-05-07 19:59 51.09958 -113.99044 3839 ft 141 kts 359°
2026-05-07 19:59 51.10924 -113.99044 3653 ft 137 kts 357°
2026-05-07 19:59 51.11826 -113.99043 3561 ft 123 kts 358°
2026-05-07 19:59 51.12557 -113.99052 3561 ft 85 kts 358°
2026-05-07 20:00 51.12987 -113.99091 3562 ft 32 kts 336°
2026-05-07 20:00 51.13143 -113.99233 3555 ft 12 kts 322°
2026-05-07 20:00 51.13159 -113.99294 3564 ft 8 kts 271°
2026-05-07 20:00 51.13156 -113.99399 3561 ft 0 kts 236°
2026-05-07 20:01 51.13108 -113.99438 3562 ft 17 kts 194°
2026-05-07 20:01 51.12944 -113.99453 3561 ft 31 kts 183°
2026-05-07 20:01 51.12734 -113.99441 3559 ft 28 kts 177°
2026-05-07 20:01 51.12623 -113.99551 3565 ft 21 kts 269°
2026-05-07 20:02 51.12620 -113.99783 3565 ft 22 kts 269°
2026-05-07 20:02 51.12617 -114.00047 3565 ft 24 kts 269°
2026-05-07 20:02 51.12610 -114.00239 3565 ft 15 kts 262°
2026-05-07 20:02 51.12620 -114.00404 3565 ft 12 kts 270°
2026-05-07 20:03 51.12616 -114.00548 3565 ft 14 kts 267°
2026-05-07 20:03 51.12660 -114.00645 3562 ft 10 kts 357°
2026-05-07 20:03 51.12724 -114.00639 3558 ft 6 kts
2026-05-07 20:03 51.12766 -114.00675 3563 ft 8 kts 322°
2026-05-07 20:04 51.12810 -114.00733 3563 ft 8 kts 319°
2026-05-07 20:04 51.12821 -114.00747 3563 ft 1 kts 320°
2026-05-07 20:04 51.12823 -114.00750 3563 ft 0 kts 320°